SCP
0 0 0 0 0 0 0 0 0 0 0 0 0 0 0 0 0 0 0 0 0 0 0 0 0 0 0 0 0 0 0 0 0 0 0 0 0 0
0 0 0 0 0 0 0 0 0 0 0 0 0 0 0 0 0 0 0 0 0 0 0 0 0 0 0 0 0 0 0 0 0 0 0 0 0 0
0 0 0 0 0 0 0 0 0 0 0 0 0 0 0 0 0 0 0 0 0 0 0 0 0 0 0 0 0 0 0 0 0 0 0 0 0 0
0 0 0 0 0 0 0 0 0 0 0 0 0 0 0 0 0 0 0 0 0 0 0 0 0 0 0 0 0 0 0 0 0 0 0 0 0 0
0 0 0 0 0 0 0 0 0 0 0 0 0 0 0 0 0 0 0 0 0 0 0 0 0 0 0 0 0 0 0 0 0 0 0 0 0 0
0 0 0 0 0 0 0 0 0 0 0 0 0 0 0 0 0 0 0 0 0 0 0 0 0 0 0 0 0 0 0 0 0 0 0 0 0 0
0 0 0 0 0 0 0 0 0 0 0 0 0 0 0 0 0 0 0 0 0 0 0 0 0 0 0 0 0 0 0 0 0 0 0 0 0 0
0 0 0 0 0 0 0 0 0 0 0 0 0 0 0 0 0 0 0 0 0 0 0 0 0 0 0 0 0 0 0 0 0 0 0 0 0 0
-0 -0 -0 0 -0 0 0 0 0 0 0 0 0 0 0 0 0 0 0 0 0 0 0 0 0 0 0 0 0 0 0 0 0 0 0 0 0 0
-0 -0 -0 -0 -0 -0 0 0 0 0 0 0 0 0 0 0 0 0 0 0 0 0 0 0 0 0 0 0 0 0 0 0 0 0 0 0 0 0
-0 -0 -0 -0 -0 0 0 0 0 0 0 0 0 0 0 0 0 0 0 0 0 0 0 0 0 0 0 -0 0 0 0 0 0 0 0 0 0 0
0 0 0 0 0 0 0 0 0 0 0 0 0 0 0 0 0 0 0 0 0 0 0 0 0 0 0 -0 -0 0 0 0 0 0 0 0 0 0
0 0 0 0 0 0 0 0 0 0 0 0 0 0 0 0 0 0 0 0 0 0 0 0 0 0 0 -0 -0 0 0 0 0 0 0 0 0 0
0 0 0 0 0 0 0 0 0 0 0 0 0 0 0 0 0 0 0 0 0 0 0 0 0 0 0 0 0 0 0 0 0 0 0 0 0 0
0 0 0 0 0 0 0 0 0 0 0 0 0 0 0 0 0 0 0 0 0 0 0 0 0 0 0 0 0 0 0 0 0 0 0 0 0 0
0 0 0 0 0 0 0 0 0 0 0 0 0 0 0 0 0 0 0 0 0 0 0 0 0 0 0 0 0 0 0 0 0 0 0 0 0 0
0 0 0 0 0 0 0 0 0 0 0 0 0 0 0 0 0 0 0 0 0 0 0 0 0 0 0 0 0 0 0 0 0 0 0 0 0 0
0 0 0 0 0 0 0 0 0 0 0 0 0 0 0 0 0 0 0 0 0 0 0 0 0 0 0 0 0 0 0 0 0 0 0 0 0 0
0 0 0 0 0 0 0 0 0 0 0 0 0 0 0 0 0 0 0 0 0 0 0 0 0 0 0 0 0 0 0 0 0 0 0 0 0 0
0 0 0 0 0 0 0 0 0 0 0 0 0 0 0 0 0 0 0 0 0 0 0 0 0 0 0 0 0 0 0 0 0 0 0 0 0 0
0 0 0 0 0 0 0 0 0 0 0 0 0 0 0 0 0 0 0 0 0 0 0 0 0 0 0 0 0 0 0 0 0 0 0 0 0 0
0 0 0 0 0 0 0 0 0 0 0 0 0 0 0 0 0 0 0 0 0 0 0 0 0 0 0 0 0 0 0 0 0 0 0 0 0 0
0 0 0 0 0 0 0 0 0 0 0 0 0 0 0 0 0 0 0 0 0 0 0 0 0 0 0 0 0 0 0 0 0 0 0 0 0 0
Wind_Speed
2 2 2 1 1 1 2 3 4 2 1 2 2 2 2 2 4 3 3 6 7 7 7 8 8 8 9 10 10 11 12 12 12 11 11 11 11 10
2 2 2 1 1 1 2 1 2 3 1 1 1 2 2 2 4 3 3 6 7 7 7 7 7 7 8 8 9 10 10 11 12 11 11 11 10 10
2 2 2 2 2 1 2 2 2 2 3 0 1 1 2 2 3 3 2 3 3 6 6 6 6 6 7 7 8 9 9 10 11 11 11 11 10 10
1 2 1 2 2 1 2 2 2 2 3 1 1 1 1 1 2 2 3 3 2 5 6 6 6 6 6 7 7 8 8 9 10 10 10 10 10 9
2 2 2 2 1 1 2 2 1 2 2 2 0 1 1 1 2 2 3 3 3 4 5 6 6 6 6 6 6 7 8 8 8 9 10 10 10 10
1 2 2 3 3 2 2 2 2 2 2 2 1 1 1 1 1 1 2 2 2 3 4 4 6 7 7 7 6 7 7 7 8 8 9 9 9 9
1 1 2 3 4 3 3 3 3 2 2 1 0 0 1 1 1 1 1 2 2 2 2 3 3 3 4 6 6 6 7 7 7 8 8 8 9 9
1 0 0 1 1 2 3 5 6 4 4 2 1 1 2 2 1 0 0 1 2 2 1 2 2 2 3 2 5 6 6 6 6 7 8 8 8 8
2 1 0 1 1 1 1 1 2 3 5 4 3 3 3 3 2 1 1 1 2 2 0 2 2 2 3 3 6 6 6 6 6 7 7 8 8 8
3 3 2 2 2 3 2 1 0 0 2 3 3 4 3 3 4 3 2 1 1 1 0 1 2 2 3 3 5 6 5 6 7 7 7 8 8 8
2 3 3 3 4 4 4 2 0 1 0 2 2 1 1 2 3 2 1 1 1 2 0 1 2 2 2 2 3 6 6 7 7 7 8 8 8 7
1 2 4 4 5 5 4 4 3 2 0 1 1 2 2 1 1 2 3 2 1 2 1 1 1 1 3 2 2 3 4 6 7 8 8 8 7 4
2 2 3 5 5 5 5 4 5 3 1 1 1 1 2 1 1 0 1 2 2 2 2 1 1 1 1 3 2 2 2 2 3 4 7 8 8 5
4 3 3 5 5 5 4 4 5 3 2 1 1 0 1 1 1 1 1 1 2 3 2 2 1 2 2 2 3 3 2 2 2 3 4 7 6 7
3 5 5 4 3 2 4 4 3 2 2 2 2 2 2 1 1 1 1 1 1 1 1 1 2 2 2 2 2 2 3 3 2 3 4 4 4 4
2 2 2 2 1 2 2 1 1 2 3 3 2 2 1 0 0 0 0 1 1 3 3 1 1 2 2 2 2 3 2 3 3 3 4 4 4 3
3 1 1 1 1 1 1 1 1 1 2 2 2 1 1 1 1 0 0 0 0 2 3 3 2 0 1 2 2 3 3 3 3 4 3 4 4 4
4 3 3 3 3 3 3 2 2 2 2 2 2 2 2 2 1 1 0 1 1 2 2 2 2 2 2 2 3 3 3 3 4 4 3 4 5 5
3 3 3 3 3 3 3 3 3 3 2 3 3 2 2 2 1 1 1 1 1 2 2 2 1 0 2 4 3 3 3 3 3 3 3 4 5 6
3 3 4 4 4 4 4 3 3 2 2 2 2 2 2 2 2 2 2 2 2 2 2 2 1 2 3 4 3 3 4 4 3 4 4 4 5 7
3 3 3 4 3 3 3 3 3 3 3 2 3 3 3 2 2 3 3 3 2 2 3 3 3 4 2 1 3 4 3 4 5 4 4 5 5 5
3 3 3 3 3 3 3 3 3 3 3 2 3 3 3 3 3 3 3 3 3 3 3 3 2 1 1 2 4 5 5 5 5 8 7 6 4 5
3 3 3 3 2 2 3 3 4 3 3 3 3 3 3 3 3 3 3 3 3 3 3 3 2 1 2 3 4 5 6 6 4 4 5 7 9 11
Wind_Direction
91 101 99 91 101 109 127 140 139 132 329 322 339 338 349 10 14 18 12 25 30 32 32 33 32 31 30 28 26 22 19 17 16 17 19 19 16 14
91 97 89 87 89 92 109 107 124 140 157 281 294 323 346 19 29 17 16 21 25 29 29 29 29 30 29 27 25 21 18 16 16 18 18 17 16 16
77 98 87 91 91 83 90 95 99 118 134 302 323 338 359 3 359 3 8 5 7 26 27 29 29 28 25 23 22 19 17 16 15 13 12 12 11 11
111 106 101 105 91 84 94 100 108 122 139 151 317 338 341 339 345 351 1 13 357 18 23 27 26 26 23 21 17 16 15 14 13 11 8 7 5 4
146 144 151 129 120 114 112 114 113 109 117 138 207 330 338 354 10 2 3 352 356 12 21 25 25 23 19 15 13 14 14 13 12 9 7 6 6 5
152 165 167 164 171 162 149 148 130 113 113 121 117 339 328 336 34 6 351 351 346 358 7 11 17 18 12 10 12 14 14 11 9 7 5 3 1 360
135 181 193 184 184 174 164 165 149 138 133 129 144 356 312 329 300 285 314 324 325 345 346 350 356 359 355 355 4 8 7 7 6 4 3 1 359 357
184 245 257 218 182 171 169 167 165 161 166 163 183 205 246 236 230 220 279 355 319 331 4 326 351 334 328 333 351 1 3 4 4 2 360 358 358 357
194 200 188 120 131 123 108 124 167 185 180 173 181 212 217 213 186 206 220 220 252 286 348 303 320 308 311 338 349 354 357 360 3 1 358 356 356 353
200 196 189 210 188 160 136 104 63 258 207 189 192 216 220 207 192 193 198 213 279 296 169 269 301 293 311 316 336 345 354 357 355 353 352 352 352 350
214 206 196 209 208 175 147 146 129 310 159 157 172 188 226 200 166 133 132 108 302 295 261 225 285 295 299 301 320 338 346 352 352 349 349 350 349 348
225 225 216 212 210 187 171 168 192 244 198 48 31 14 15 23 137 166 177 174 221 277 263 216 284 326 313 300 321 332 338 342 348 350 346 343 342 342
208 230 230 215 210 199 183 184 202 191 149 132 83 21 17 20 4 289 187 182 193 240 246 188 242 263 266 297 313 318 325 326 333 336 340 339 337 336
209 219 218 202 193 187 185 190 186 160 133 123 105 330 305 295 293 294 235 206 211 228 241 190 216 221 241 276 289 305 311 317 324 324 325 328 330 331
212 206 201 193 181 183 186 183 171 157 152 165 204 233 236 245 271 313 336 344 336 317 310 226 223 225 213 239 267 285 301 309 316 319 320 322 318 319
199 179 169 167 163 170 165 164 171 182 181 195 210 224 231 256 293 269 281 326 344 326 332 337 273 210 222 242 244 271 278 292 312 312 309 308 310 308
152 118 121 148 174 189 178 188 186 178 196 203 198 200 209 213 257 257 215 153 244 291 311 327 334 319 227 229 254 269 281 284 291 302 304 305 301 303
152 171 195 199 203 206 206 211 207 206 208 201 202 204 205 209 230 252 209 204 240 270 288 306 334 348 342 300 234 257 279 285 296 299 294 297 301 302
176 196 203 207 212 211 209 206 212 212 201 196 202 209 208 212 215 229 234 238 256 268 279 287 285 254 295 297 292 231 256 289 299 297 288 282 289 298
204 206 211 210 209 209 209 210 212 204 199 204 207 206 202 205 216 225 228 228 246 269 286 290 259 240 245 268 282 288 267 272 286 291 292 288 282 288
220 223 220 212 211 210 212 210 202 203 204 202 206 206 202 199 216 223 226 234 241 258 271 277 268 269 256 272 284 289 287 277 278 280 291 300 305 304
216 223 228 225 212 203 204 204 200 201 201 206 214 213 207 205 214 222 225 232 243 250 265 279 288 281 241 254 273 286 296 301 293 290 282 273 280 288
218 217 219 217 216 206 201 202 203 210 209 207 212 216 212 212 214 217 224 229 238 250 262 281 291 275 261 258 271 282 291 299 302 304 296 294 287 284